Oxford, CT

11:55 PM EDT on September 20, 2017 (GMT -0400)
Waterbury-Oxford

Weather History for KOXC - March, 2013

Change the Weather History Date:

Saturday, March 30, 2013

  Actual Average Record
Temperature  
Mean Temperature 44 °F -  
Max Temperature 53 °F 47 °F 78 °F (1998)
Min Temperature 35 °F 31 °F 15 °F (2008)
Degree Days  
Heating Degree Days 21    
Moisture  
Dew Point 23 °F    
Average Humidity 51    
Maximum Humidity 70    
Minimum Humidity 26    
Precipitation  
Precipitation 0.00 in - - ()
Sea Level Pressure  
Sea Level Pressure 30.10 in    
Wind  
Wind Speed 5 mph (NNW)    
Max Wind Speed 16 mph    
Max Gust Speed 24 mph    
Visibility 10 miles    
Events      
Averages and records for this station are not official NWS values.
T = Trace of Precipitation, MM = Missing Value Source: NWS Daily Summary

Daily Weather History Graph

Daily Weather History Graph

Search for Another Location

Airport or City:

Trip Planner

Search our weather history database for the weather conditions in past years. The results will help you decide how hot, cold, wet, or windy it might be!

Date:

Astronomy

Mar. 30, 2013 Rise Set
Actual Time 6:38 AM EDT 7:15 PM EDT
Civil Twilight 6:10 AM EDT 7:43 PM EDT
Nautical Twilight 5:37 AM EDT 8:16 PM EDT
Astronomical Twilight 5:03 AM EDT 8:50 PM EDT
Moon 11:22 PM EDT (3/30) 8:28 AM EDT (3/30)
Length of Visible Light 13h 33m
Length of Day
12h 37m
Waning Gibbous, 86% of the Moon is Illuminated
Mar 30
Waning Gibbous
Apr 3
Last Quarter
Apr 10
New
Apr 18
First Quarter
Apr 25
Full

Hourly Weather History & Observations

Time (EDT) Temp. Windchill Dew Point Humidity Pressure Visibility Wind Dir Wind Speed Gust Speed Precip Events Conditions
12:35 AM 39.2 °F 35.9 °F 26.6 °F 61% 30.10 in 10.0 mi NW 4.6 mph - N/A   Clear
12:55 AM 37.4 °F 34.9 °F 26.6 °F 65% 30.10 in 10.0 mi NNW 3.5 mph - N/A   Clear
1:15 AM 37.4 °F 34.9 °F 26.6 °F 65% 30.10 in 10.0 mi WNW 3.5 mph - N/A   Clear
1:35 AM 37.4 °F - 24.8 °F 60% 30.10 in 10.0 mi Calm Calm - N/A   Clear
1:55 AM 35.6 °F - 24.8 °F 65% 30.10 in 10.0 mi Calm Calm - N/A   Clear
2:15 AM 35.6 °F - 24.8 °F 65% 30.10 in 10.0 mi Calm Calm - N/A   Clear
2:55 AM 35.6 °F - 26.6 °F 70% 30.10 in 10.0 mi Calm Calm - N/A   Clear
3:15 AM 35.6 °F - 26.6 °F 70% 30.10 in 10.0 mi Calm Calm - N/A   Clear
3:35 AM 35.6 °F 32.8 °F 24.8 °F 65% 30.10 in 10.0 mi WNW 3.5 mph - N/A   Clear
3:55 AM 35.6 °F 32.8 °F 24.8 °F 65% 30.09 in 10.0 mi NNW 3.5 mph - N/A   Clear
4:15 AM 35.6 °F 31.7 °F 24.8 °F 65% 30.09 in 10.0 mi NW 4.6 mph - N/A   Clear
4:35 AM 35.6 °F 32.8 °F 24.8 °F 65% 30.09 in 10.0 mi NW 3.5 mph - N/A   Clear
5:15 AM 35.6 °F 30.7 °F 24.8 °F 65% 30.09 in 10.0 mi NNW 5.8 mph - N/A   Clear
5:35 AM 35.6 °F 28.6 °F 24.8 °F 65% 30.09 in 10.0 mi NNW 9.2 mph - N/A   Clear
5:45 AM 35.6 °F 29.9 °F 24.8 °F 65% 30.10 in 10.0 mi NNW 6.9 mph - N/A   Clear
6:45 AM 35.6 °F 32.8 °F 26.6 °F 70% 30.11 in 10.0 mi NNW 3.5 mph - N/A   Clear
7:45 AM 37.4 °F 32.8 °F 26.6 °F 65% 30.12 in 10.0 mi NW 5.8 mph - N/A   Clear
8:45 AM 39.2 °F 34.2 °F 28.4 °F 65% 30.13 in 10.0 mi North 6.9 mph - N/A   Clear
9:45 AM 44.6 °F 38.1 °F 28.4 °F 53% 30.14 in 10.0 mi North 13.8 mph - N/A   Clear
10:45 AM 46.4 °F 41.9 °F 28.4 °F 50% 30.14 in 10.0 mi North 9.2 mph - N/A   Scattered Clouds
11:45 AM 48.2 °F - 23.0 °F 37% 30.12 in 10.0 mi NNW 16.1 mph 23.0 mph N/A   Scattered Clouds
12:45 PM 51.8 °F - 24.8 °F 35% 30.11 in 10.0 mi NNW 10.4 mph 18.4 mph N/A   Scattered Clouds
1:45 PM 51.8 °F - 21.2 °F 30% 30.08 in 10.0 mi NNW 13.8 mph 18.4 mph N/A   Scattered Clouds
2:45 PM 51.8 °F - 19.4 °F 28% 30.07 in 10.0 mi NNW 8.1 mph 24.2 mph N/A   Mostly Cloudy
4:45 PM 53.6 °F - 21.2 °F 28% 30.05 in 10.0 mi North 8.1 mph 17.3 mph N/A   Mostly Cloudy
5:45 PM 53.6 °F - 19.4 °F 26% 30.06 in 10.0 mi WNW 9.2 mph - N/A   Scattered Clouds
6:45 PM 51.8 °F - 17.6 °F 26% 30.07 in 10.0 mi NW 8.1 mph - N/A   Partly Cloudy
7:45 PM 46.4 °F - 17.6 °F 32% 30.08 in 10.0 mi Calm Calm - N/A   Clear
9:15 PM 39.2 °F 35.0 °F 17.6 °F 42% 30.11 in 10.0 mi North 5.8 mph - N/A   Clear
9:35 PM 41.0 °F 37.1 °F 19.4 °F 42% 30.12 in 10.0 mi NNE 5.8 mph - N/A   Clear
9:55 PM 41.0 °F 38.0 °F 19.4 °F 42% 30.12 in 10.0 mi NNE 4.6 mph - N/A   Clear
10:15 PM 41.0 °F 37.1 °F 17.6 °F 39% 30.12 in 10.0 mi NNE 5.8 mph - N/A   Clear
10:35 PM 39.2 °F 37.0 °F 17.6 °F 42% 30.12 in 10.0 mi NNE 3.5 mph - N/A   Clear
10:55 PM 41.0 °F 39.0 °F 17.6 °F 39% 30.12 in 10.0 mi NE 3.5 mph - N/A   Clear
11:15 PM 39.2 °F 37.0 °F 17.6 °F 42% 30.12 in 10.0 mi NE 3.5 mph - N/A   Clear
11:35 PM 37.4 °F 34.9 °F 15.8 °F 41% 30.13 in 10.0 mi North 3.5 mph - N/A   Clear
11:55 PM 37.4 °F - 17.6 °F 45% 30.13 in 10.0 mi Calm Calm - N/A   Clear